Time,TemperatureF,DewpointF,PressureIn,WindDirection,WindDirectionDegrees,WindSpeedMPH,WindSpeedGustMPH,Humidity,HourlyPrecipIn,Conditions,Clouds,dailyrainin,SoftwareType,DateUTC
2013-08-25 00:00:00,71.4,69.6,30.01,NE,45,2.0,12.0,94,0.00,,,0.00,Wunderground v.1.15,2013-08-25 05:00:00,
2013-08-25 00:05:00,71.4,69.6,30.01,NE,45,1.0,12.0,94,0.00,,,0.00,Wunderground v.1.15,2013-08-25 05:05:00,
2013-08-25 00:10:00,71.4,69.6,30.01,NE,45,1.0,1.0,94,0.00,,,0.00,Wunderground v.1.15,2013-08-25 05:10:00,
2013-08-25 00:15:00,71.3,69.5,30.01,NE,45,1.0,2.0,94,0.00,,,0.00,Wunderground v.1.15,2013-08-25 05:15:00,
2013-08-25 00:20:00,71.3,69.5,30.01,NE,44,2.0,3.0,94,0.00,,,0.00,Wunderground v.1.15,2013-08-25 05:20:00,
2013-08-25 00:25:00,71.4,69.6,30.02,NE,45,2.0,3.0,94,0.00,,,0.00,Wunderground v.1.15,2013-08-25 05:25:00,
2013-08-25 00:30:00,71.5,70.0,30.02,NE,46,2.0,2.0,95,0.00,,,0.00,Wunderground v.1.15,2013-08-25 05:30:00,
2013-08-25 00:35:00,71.6,70.1,30.02,NE,48,2.0,4.0,95,0.00,,,0.00,Wunderground v.1.15,2013-08-25 05:35:00,
2013-08-25 00:40:00,71.6,70.1,30.01,NE,49,2.0,4.0,95,0.00,,,0.00,Wunderground v.1.15,2013-08-25 05:40:00,
2013-08-25 00:45:00,71.6,70.1,30.01,NE,44,2.0,4.0,95,0.00,,,0.00,Wunderground v.1.15,2013-08-25 05:45:00,
2013-08-25 00:50:00,71.6,69.8,30.01,NE,46,2.0,4.0,94,0.00,,,0.00,Wunderground v.1.15,2013-08-25 05:50:00,
2013-08-25 00:55:00,71.5,69.7,30.00,NE,48,2.0,4.0,94,0.00,,,0.00,Wunderground v.1.15,2013-08-25 05:55:00,
2013-08-25 01:00:00,71.5,69.7,30.00,NE,48,1.0,1.0,94,0.00,,,0.00,Wunderground v.1.15,2013-08-25 06:00:00,
2013-08-25 01:05:00,71.4,69.6,30.00,NE,48,0.0,2.0,94,0.00,,,0.00,Wunderground v.1.15,2013-08-25 06:05:00,
2013-08-25 01:10:00,71.3,69.5,30.00,NE,48,1.0,4.0,94,0.00,,,0.00,Wunderground v.1.15,2013-08-25 06:10:00,
2013-08-25 01:15:00,71.2,69.4,30.00,NE,48,1.0,4.0,94,0.00,,,0.00,Wunderground v.1.15,2013-08-25 06:15:00,
2013-08-25 01:20:00,71.2,69.4,30.00,NE,48,1.0,4.0,94,0.00,,,0.00,Wunderground v.1.15,2013-08-25 06:20:00,
2013-08-25 01:25:00,71.2,69.4,30.00,NE,40,1.0,4.0,94,0.00,,,0.00,Wunderground v.1.15,2013-08-25 06:25:00,
2013-08-25 01:30:00,71.2,69.4,30.00,NE,40,1.0,1.0,94,0.00,,,0.00,Wunderground v.1.15,2013-08-25 06:30:00,
2013-08-25 01:35:00,71.2,69.4,30.00,NE,40,1.0,4.0,94,0.00,,,0.00,Wunderground v.1.15,2013-08-25 06:35:00,
2013-08-25 01:40:00,71.2,69.4,30.00,NE,40,1.0,4.0,94,0.00,,,0.00,Wunderground v.1.15,2013-08-25 06:40:00,
2013-08-25 01:45:00,71.2,69.4,29.99,NE,48,2.0,4.0,94,0.00,,,0.00,Wunderground v.1.15,2013-08-25 06:45:00,
2013-08-25 01:50:00,71.2,69.4,29.99,NE,39,2.0,2.0,94,0.00,,,0.00,Wunderground v.1.15,2013-08-25 06:50:00,
2013-08-25 01:55:00,71.2,69.4,29.99,NE,45,1.0,4.0,94,0.00,,,0.00,Wunderground v.1.15,2013-08-25 06:55:00,
2013-08-25 02:00:00,71.1,69.6,29.99,NE,53,1.0,4.0,95,0.00,,,0.00,Wunderground v.1.15,2013-08-25 07:00:00,
2013-08-25 02:05:00,71.1,69.6,29.99,NE,51,2.0,4.0,95,0.00,,,0.00,Wunderground v.1.15,2013-08-25 07:05:00,
2013-08-25 02:10:00,71.1,69.6,30.00,NE,46,2.0,4.0,95,0.00,,,0.00,Wunderground v.1.15,2013-08-25 07:10:00,
2013-08-25 02:15:00,71.1,69.6,30.00,NE,46,2.0,4.0,95,0.00,,,0.00,Wunderground v.1.15,2013-08-25 07:15:00,
2013-08-25 02:20:00,71.1,69.6,30.00,NNE,33,2.0,4.0,95,0.00,,,0.00,Wunderground v.1.15,2013-08-25 07:20:00,
2013-08-25 02:25:00,71.2,69.7,30.00,NE,51,3.0,4.0,95,0.00,,,0.00,Wunderground v.1.15,2013-08-25 07:25:00,
2013-08-25 02:30:00,71.2,69.7,30.00,NNE,28,3.0,5.0,95,0.00,,,0.00,Wunderground v.1.15,2013-08-25 07:30:00,
2013-08-25 02:35:00,71.2,69.7,30.00,NE,41,3.0,5.0,95,0.00,,,0.00,Wunderground v.1.15,2013-08-25 07:35:00,
2013-08-25 02:40:00,71.1,69.6,30.01,NE,53,3.0,3.0,95,0.00,,,0.00,Wunderground v.1.15,2013-08-25 07:40:00,
2013-08-25 02:45:00,71.1,69.6,30.01,ENE,59,3.0,4.0,95,0.00,,,0.00,Wunderground v.1.15,2013-08-25 07:45:00,
2013-08-25 02:50:00,71.1,69.6,30.01,NE,54,3.0,4.0,95,0.00,,,0.00,Wunderground v.1.15,2013-08-25 07:50:00,
2013-08-25 02:55:00,71.1,69.6,30.01,NE,44,2.0,4.0,95,0.00,,,0.00,Wunderground v.1.15,2013-08-25 07:55:00,
2013-08-25 03:00:00,71.1,69.6,30.01,ENE,63,3.0,4.0,95,0.00,,,0.00,Wunderground v.1.15,2013-08-25 08:00:00,
2013-08-25 03:05:00,71.0,69.5,30.01,NE,37,3.0,4.0,95,0.00,,,0.00,Wunderground v.1.15,2013-08-25 08:05:00,
2013-08-25 03:10:00,71.0,69.5,30.00,NE,53,2.0,4.0,95,0.00,,,0.00,Wunderground v.1.15,2013-08-25 08:10:00,
2013-08-25 03:15:00,71.0,69.5,30.00,ENE,76,2.0,4.0,95,0.00,,,0.00,Wunderground v.1.15,2013-08-25 08:15:00,
2013-08-25 03:20:00,71.0,69.5,30.00,NE,46,2.0,4.0,95,0.00,,,0.00,Wunderground v.1.15,2013-08-25 08:20:00,
2013-08-25 03:25:00,71.0,69.5,30.00,NE,44,2.0,4.0,95,0.00,,,0.00,Wunderground v.1.15,2013-08-25 08:25:00,
2013-08-25 03:30:00,71.0,69.5,30.00,NE,55,2.0,4.0,95,0.00,,,0.00,Wunderground v.1.15,2013-08-25 08:30:00,
2013-08-25 03:35:00,71.0,69.5,30.00,NE,40,2.0,4.0,95,0.00,,,0.00,Wunderground v.1.15,2013-08-25 08:35:00,
2013-08-25 03:40:00,71.0,69.5,30.00,ENE,57,2.0,4.0,95,0.00,,,0.00,Wunderground v.1.15,2013-08-25 08:40:00,
2013-08-25 03:45:00,70.9,69.4,30.00,NE,53,2.0,4.0,95,0.00,,,0.00,Wunderground v.1.15,2013-08-25 08:45:00,
2013-08-25 03:50:00,70.8,69.0,30.00,NE,46,2.0,4.0,94,0.00,,,0.00,Wunderground v.1.15,2013-08-25 08:50:00,
2013-08-25 03:55:00,70.8,69.3,30.00,NE,39,2.0,4.0,95,0.00,,,0.00,Wunderground v.1.15,2013-08-25 08:55:00,
2013-08-25 04:00:00,70.8,69.0,30.00,NE,41,2.0,2.0,94,0.00,,,0.00,Wunderground v.1.15,2013-08-25 09:00:00,
2013-08-25 04:05:00,70.7,68.9,30.00,NE,42,2.0,4.0,94,0.00,,,0.00,Wunderground v.1.15,2013-08-25 09:05:00,
2013-08-25 04:10:00,70.6,68.8,29.99,NE,43,2.0,2.0,94,0.00,,,0.00,Wunderground v.1.15,2013-08-25 09:10:00,
2013-08-25 04:15:00,70.5,68.7,29.99,NE,43,1.0,4.0,94,0.00,,,0.00,Wunderground v.1.15,2013-08-25 09:15:00,
2013-08-25 04:25:00,70.4,68.6,29.98,NE,43,1.0,4.0,94,0.00,,,0.00,Wunderground v.1.15,2013-08-25 09:25:00,
2013-08-25 04:30:00,70.4,68.6,29.98,NE,42,1.0,4.0,94,0.00,,,0.00,Wunderground v.1.15,2013-08-25 09:30:00,
2013-08-25 04:35:00,70.3,68.5,29.98,NE,43,1.0,4.0,94,0.00,,,0.00,Wunderground v.1.15,2013-08-25 09:35:00,
2013-08-25 04:40:00,70.3,68.5,30.00,NE,43,2.0,4.0,94,0.00,,,0.00,Wunderground v.1.15,2013-08-25 09:40:00,
2013-08-25 04:45:00,70.3,68.8,30.00,NE,43,2.0,4.0,95,0.00,,,0.00,Wunderground v.1.15,2013-08-25 09:45:00,
2013-08-25 04:50:00,70.3,68.5,30.00,NE,43,2.0,2.0,94,0.00,,,0.00,Wunderground v.1.15,2013-08-25 09:50:00,
2013-08-25 04:55:00,70.2,68.4,30.00,NE,51,2.0,4.0,94,0.00,,,0.00,Wunderground v.1.15,2013-08-25 09:55:00,
2013-08-25 05:00:00,70.2,68.4,30.00,NE,51,2.0,4.0,94,0.00,,,0.00,Wunderground v.1.15,2013-08-25 10:00:00,
2013-08-25 05:05:00,70.2,68.4,30.00,ENE,60,2.0,4.0,94,0.00,,,0.00,Wunderground v.1.15,2013-08-25 10:05:00,
2013-08-25 05:10:00,70.2,68.4,30.00,NE,38,2.0,2.0,94,0.00,,,0.00,Wunderground v.1.15,2013-08-25 10:10:00,
2013-08-25 05:15:00,70.2,68.4,30.00,NE,51,2.0,2.0,94,0.00,,,0.00,Wunderground v.1.15,2013-08-25 10:15:00,
2013-08-25 05:20:00,70.2,68.4,30.00,ENE,57,2.0,2.0,94,0.00,,,0.00,Wunderground v.1.15,2013-08-25 10:20:00,
2013-08-25 05:25:00,70.1,68.3,30.00,NE,44,1.0,2.0,94,0.00,,,0.00,Wunderground v.1.15,2013-08-25 10:25:00,
2013-08-25 05:30:00,70.1,68.3,30.00,NE,44,1.0,1.0,94,0.00,,,0.00,Wunderground v.1.15,2013-08-25 10:30:00,
2013-08-25 05:35:00,70.0,68.2,30.00,ENE,65,1.0,2.0,94,0.00,,,0.00,Wunderground v.1.15,2013-08-25 10:35:00,
2013-08-25 05:40:00,70.0,68.2,30.00,NE,40,2.0,3.0,94,0.00,,,0.00,Wunderground v.1.15,2013-08-25 10:40:00,
2013-08-25 05:45:00,69.9,68.1,30.00,NE,39,2.0,3.0,94,0.00,,,0.00,Wunderground v.1.15,2013-08-25 10:45:00,
2013-08-25 05:50:00,69.9,68.1,30.00,NE,53,2.0,3.0,94,0.00,,,0.00,Wunderground v.1.15,2013-08-25 10:50:00,
2013-08-25 05:55:00,69.9,68.1,30.00,NE,52,2.0,3.0,94,0.00,,,0.00,Wunderground v.1.15,2013-08-25 10:55:00,
2013-08-25 06:00:00,69.8,68.0,30.01,NE,46,2.0,3.0,94,0.00,,,0.00,Wunderground v.1.15,2013-08-25 11:00:00,
2013-08-25 06:05:00,69.8,68.0,30.01,NE,48,2.0,3.0,94,0.00,,,0.00,Wunderground v.1.15,2013-08-25 11:05:00,
2013-08-25 06:10:00,69.8,68.0,30.01,NE,46,2.0,3.0,94,0.00,,,0.00,Wunderground v.1.15,2013-08-25 11:10:00,
2013-08-25 06:15:00,69.7,67.9,30.01,NE,52,2.0,3.0,94,0.00,,,0.00,Wunderground v.1.15,2013-08-25 11:15:00,
2013-08-25 06:20:00,69.7,67.9,30.01,NE,40,2.0,3.0,94,0.00,,,0.00,Wunderground v.1.15,2013-08-25 11:20:00,
2013-08-25 06:25:00,69.7,67.9,30.01,NE,43,2.0,3.0,94,0.00,,,0.00,Wunderground v.1.15,2013-08-25 11:25:00,
2013-08-25 06:30:00,69.7,67.9,30.01,NE,50,2.0,3.0,94,0.00,,,0.00,Wunderground v.1.15,2013-08-25 11:30:00,
2013-08-25 06:40:00,69.7,67.9,30.02,NE,48,2.0,3.0,94,0.00,,,0.00,Wunderground v.1.15,2013-08-25 11:40:00,
2013-08-25 06:45:00,69.8,68.0,30.02,NE,49,2.0,3.0,94,0.00,,,0.00,Wunderground v.1.15,2013-08-25 11:45:00,
2013-08-25 06:50:00,69.8,68.0,30.02,NE,41,3.0,5.0,94,0.00,,,0.00,Wunderground v.1.15,2013-08-25 11:50:00,
2013-08-25 06:55:00,70.0,68.2,30.02,NE,48,3.0,5.0,94,0.00,,,0.00,Wunderground v.1.15,2013-08-25 11:55:00,
2013-08-25 07:00:00,70.1,68.3,30.02,NE,46,3.0,3.0,94,0.00,,,0.00,Wunderground v.1.15,2013-08-25 12:00:00,
2013-08-25 07:05:00,70.2,68.7,30.02,NE,42,3.0,3.0,95,0.00,,,0.00,Wunderground v.1.15,2013-08-25 12:05:00,
2013-08-25 07:10:00,70.3,68.5,30.03,NE,53,3.0,3.0,94,0.00,,,0.00,Wunderground v.1.15,2013-08-25 12:10:00,
2013-08-25 07:15:00,70.5,68.7,30.03,NE,43,3.0,3.0,94,0.00,,,0.00,Wunderground v.1.15,2013-08-25 12:15:00,
2013-08-25 07:20:00,70.6,68.8,30.03,NE,42,3.0,3.0,94,0.00,,,0.00,Wunderground v.1.15,2013-08-25 12:20:00,
2013-08-25 07:25:00,70.8,69.0,30.03,NE,48,3.0,6.0,94,0.00,,,0.00,Wunderground v.1.15,2013-08-25 12:25:00,
2013-08-25 07:30:00,70.9,69.1,30.03,NE,40,3.0,3.0,94,0.00,,,0.00,Wunderground v.1.15,2013-08-25 12:30:00,
2013-08-25 07:35:00,71.1,69.3,30.03,NE,46,3.0,4.0,94,0.00,,,0.00,Wunderground v.1.15,2013-08-25 12:35:00,
2013-08-25 07:40:00,71.3,69.5,30.03,NE,41,3.0,3.0,94,0.00,,,0.00,Wunderground v.1.15,2013-08-25 12:40:00,
2013-08-25 07:45:00,71.5,69.7,30.04,NE,45,3.0,3.0,94,0.00,,,0.00,Wunderground v.1.15,2013-08-25 12:45:00,
2013-08-25 07:50:00,71.7,69.9,30.04,NE,55,3.0,3.0,94,0.00,,,0.00,Wunderground v.1.15,2013-08-25 12:50:00,
2013-08-25 07:55:00,71.9,70.1,30.04,NE,45,3.0,3.0,94,0.00,,,0.00,Wunderground v.1.15,2013-08-25 12:55:00,
2013-08-25 08:00:00,72.2,70.4,30.04,NNE,32,4.0,5.0,94,0.00,,,0.00,Wunderground v.1.15,2013-08-25 13:00:00,
2013-08-25 08:05:00,72.4,70.3,30.04,ENE,57,3.0,5.0,93,0.00,,,0.00,Wunderground v.1.15,2013-08-25 13:05:00,
2013-08-25 08:10:00,72.7,70.6,30.04,NE,49,3.0,6.0,93,0.00,,,0.00,Wunderground v.1.15,2013-08-25 13:10:00,
2013-08-25 08:15:00,73.0,70.9,30.04,NE,42,4.0,6.0,93,0.00,,,0.00,Wunderground v.1.15,2013-08-25 13:15:00,
2013-08-25 08:20:00,73.4,70.9,30.04,NE,49,4.0,4.0,92,0.00,,,0.00,Wunderground v.1.15,2013-08-25 13:20:00,
2013-08-25 08:25:00,73.7,71.2,30.05,East,99,4.0,4.0,92,0.00,,,0.00,Wunderground v.1.15,2013-08-25 13:25:00,
2013-08-25 08:30:00,74.0,71.5,30.05,NE,35,4.0,6.0,92,0.00,,,0.00,Wunderground v.1.15,2013-08-25 13:30:00,
2013-08-25 08:35:00,74.3,71.5,30.05,ENE,57,4.0,6.0,91,0.00,,,0.00,Wunderground v.1.15,2013-08-25 13:35:00,
2013-08-25 08:40:00,74.7,71.6,30.05,NE,56,4.0,4.0,90,0.00,,,0.00,Wunderground v.1.15,2013-08-25 13:40:00,
2013-08-25 08:45:00,75.1,72.0,30.05,ENE,69,4.0,6.0,90,0.00,,,0.00,Wunderground v.1.15,2013-08-25 13:45:00,
2013-08-25 08:50:00,75.4,71.6,30.05,NE,45,4.0,10.0,88,0.00,,,0.00,Wunderground v.1.15,2013-08-25 13:50:00,
2013-08-25 08:55:00,75.9,72.1,30.05,NE,40,4.0,10.0,88,0.00,,,0.00,Wunderground v.1.15,2013-08-25 13:55:00,
2013-08-25 09:00:00,76.2,72.0,30.05,ENE,59,4.0,7.0,87,0.00,,,0.00,Wunderground v.1.15,2013-08-25 14:00:00,
2013-08-25 09:05:00,76.5,72.3,30.05,NE,45,4.0,7.0,87,0.00,,,0.00,Wunderground v.1.15,2013-08-25 14:05:00,
2013-08-25 09:10:00,76.9,72.4,30.06,NE,48,4.0,5.0,86,0.00,,,0.00,Wunderground v.1.15,2013-08-25 14:10:00,
2013-08-25 09:15:00,77.4,72.5,30.06,NE,50,4.0,6.0,85,0.00,,,0.00,Wunderground v.1.15,2013-08-25 14:15:00,
2013-08-25 09:20:00,77.9,72.7,30.06,ESE,115,4.0,4.0,84,0.00,,,0.00,Wunderground v.1.15,2013-08-25 14:20:00,
2013-08-25 09:25:00,78.2,72.6,30.06,East,94,4.0,4.0,83,0.00,,,0.00,Wunderground v.1.15,2013-08-25 14:25:00,
2013-08-25 09:30:00,78.4,72.8,30.06,NE,48,3.0,12.0,83,0.00,,,0.00,Wunderground v.1.15,2013-08-25 14:30:00,
2013-08-25 09:35:00,78.6,72.6,30.06,East,80,4.0,12.0,82,0.00,,,0.00,Wunderground v.1.15,2013-08-25 14:35:00,
2013-08-25 09:40:00,79.2,73.2,30.06,NE,40,3.0,3.0,82,0.00,,,0.00,Wunderground v.1.15,2013-08-25 14:40:00,
2013-08-25 09:45:00,79.5,72.8,30.06,NE,53,4.0,5.0,80,0.00,,,0.00,Wunderground v.1.15,2013-08-25 14:45:00,
2013-08-25 09:50:00,79.5,73.2,30.06,NE,46,5.0,7.0,81,0.00,,,0.00,Wunderground v.1.15,2013-08-25 14:50:00,
2013-08-25 09:55:00,79.7,73.3,30.06,NE,54,5.0,7.0,81,0.00,,,0.00,Wunderground v.1.15,2013-08-25 14:55:00,
2013-08-25 10:00:00,79.9,73.5,30.06,NE,42,4.0,4.0,81,0.00,,,0.00,Wunderground v.1.15,2013-08-25 15:00:00,
2013-08-25 10:05:00,80.3,73.6,30.06,ENE,63,4.0,9.0,80,0.00,,,0.00,Wunderground v.1.15,2013-08-25 15:05:00,
2013-08-25 10:10:00,80.2,73.1,30.06,NE,39,5.0,5.0,79,0.00,,,0.00,Wunderground v.1.15,2013-08-25 15:10:00,
2013-08-25 10:15:00,80.3,73.2,30.06,ENE,63,5.0,5.0,79,0.00,,,0.00,Wunderground v.1.15,2013-08-25 15:15:00,
2013-08-25 10:20:00,80.8,74.0,30.06,ESE,102,4.0,6.0,80,0.00,,,0.00,Wunderground v.1.15,2013-08-25 15:20:00,
2013-08-25 10:25:00,81.0,73.9,30.06,NNE,24,5.0,6.0,79,0.00,,,0.00,Wunderground v.1.15,2013-08-25 15:25:00,
2013-08-25 10:30:00,81.2,74.1,30.06,NE,53,4.0,6.0,79,0.00,,,0.00,Wunderground v.1.15,2013-08-25 15:30:00,
2013-08-25 10:35:00,80.9,74.1,30.06,NE,40,3.0,6.0,80,0.00,,,0.00,Wunderground v.1.15,2013-08-25 15:35:00,
2013-08-25 10:40:00,80.9,73.8,30.06,NE,55,4.0,4.0,79,0.00,,,0.00,Wunderground v.1.15,2013-08-25 15:40:00,
2013-08-25 10:50:00,81.2,74.1,30.06,SSW,196,3.0,3.0,79,0.00,,,0.00,Wunderground v.1.15,2013-08-25 15:50:00,
2013-08-25 10:55:00,82.0,74.8,30.07,NE,40,3.0,6.0,79,0.00,,,0.00,Wunderground v.1.15,2013-08-25 15:55:00,
2013-08-25 11:00:00,82.5,74.6,30.07,NNE,21,3.0,3.0,77,0.00,,,0.00,Wunderground v.1.15,2013-08-25 16:00:00,
2013-08-25 11:05:00,82.6,73.9,30.07,NNE,23,4.0,5.0,75,0.00,,,0.00,Wunderground v.1.15,2013-08-25 16:05:00,
2013-08-25 11:10:00,82.8,74.5,30.06,NNE,17,4.0,4.0,76,0.00,,,0.00,Wunderground v.1.15,2013-08-25 16:10:00,
2013-08-25 11:15:00,83.0,74.3,30.06,NE,55,4.0,4.0,75,0.00,,,0.00,Wunderground v.1.15,2013-08-25 16:15:00,
2013-08-25 11:20:00,82.9,74.2,30.06,East,90,4.0,4.0,75,0.00,,,0.00,Wunderground v.1.15,2013-08-25 16:20:00,
2013-08-25 11:25:00,83.2,74.0,30.07,South,189,3.0,4.0,74,0.00,,,0.00,Wunderground v.1.15,2013-08-25 16:25:00,
2013-08-25 11:30:00,83.0,74.3,30.07,NE,53,3.0,3.0,75,0.00,,,0.00,Wunderground v.1.15,2013-08-25 16:30:00,
2013-08-25 11:35:00,82.9,74.2,30.07,NNE,15,4.0,4.0,75,0.00,,,0.00,Wunderground v.1.15,2013-08-25 16:35:00,
2013-08-25 11:40:00,83.0,74.6,30.06,NE,38,3.0,4.0,76,0.00,,,0.00,Wunderground v.1.15,2013-08-25 16:40:00,
2013-08-25 11:45:00,83.1,74.4,30.06,NE,38,4.0,12.0,75,0.00,,,0.00,Wunderground v.1.15,2013-08-25 16:45:00,
2013-08-25 11:50:00,83.3,74.1,30.06,NE,54,5.0,5.0,74,0.00,,,0.00,Wunderground v.1.15,2013-08-25 16:50:00,
2013-08-25 11:55:00,83.3,74.9,30.06,ENE,73,4.0,5.0,76,0.00,,,0.00,Wunderground v.1.15,2013-08-25 16:55:00,
2013-08-25 12:00:00,84.3,75.1,30.06,ENE,61,4.0,5.0,74,0.00,,,0.00,Wunderground v.1.15,2013-08-25 17:00:00,
2013-08-25 12:05:00,84.8,74.8,30.06,NE,41,3.0,5.0,72,0.00,,,0.00,Wunderground v.1.15,2013-08-25 17:05:00,
2013-08-25 12:10:00,83.9,74.3,30.06,NE,52,4.0,4.0,73,0.00,,,0.00,Wunderground v.1.15,2013-08-25 17:10:00,
2013-08-25 12:15:00,83.4,73.8,30.06,ESE,113,4.0,4.0,73,0.00,,,0.00,Wunderground v.1.15,2013-08-25 17:15:00,
2013-08-25 12:20:00,84.5,74.5,30.06,ESE,110,3.0,3.0,72,0.00,,,0.00,Wunderground v.1.15,2013-08-25 17:20:00,
2013-08-25 12:25:00,85.8,74.0,30.06,NE,55,3.0,4.0,68,0.00,,,0.00,Wunderground v.1.15,2013-08-25 17:25:00,
2013-08-25 12:30:00,86.6,75.2,30.06,NNE,26,2.0,4.0,69,0.00,,,0.00,Wunderground v.1.15,2013-08-25 17:30:00,
2013-08-25 12:35:00,87.2,75.3,30.06,ESE,107,2.0,4.0,68,0.00,,,0.00,Wunderground v.1.15,2013-08-25 17:35:00,
2013-08-25 12:40:00,87.2,74.0,30.06,ESE,112,3.0,3.0,65,0.00,,,0.00,Wunderground v.1.15,2013-08-25 17:40:00,
2013-08-25 12:50:00,85.3,73.5,30.05,NE,56,3.0,5.0,68,0.00,,,0.00,Wunderground v.1.15,2013-08-25 17:50:00,
2013-08-25 12:55:00,84.6,75.0,30.05,NE,41,3.0,5.0,73,0.00,,,0.00,Wunderground v.1.15,2013-08-25 17:55:00,
2013-08-25 13:00:00,85.3,74.4,30.05,North,355,3.0,5.0,70,0.00,,,0.00,Wunderground v.1.15,2013-08-25 18:00:00,
2013-08-25 13:05:00,84.6,74.2,30.05,ENE,76,4.0,5.0,71,0.00,,,0.00,Wunderground v.1.15,2013-08-25 18:05:00,
2013-08-25 13:10:00,84.2,74.6,30.05,NE,53,3.0,3.0,73,0.00,,,0.00,Wunderground v.1.15,2013-08-25 18:10:00,
2013-08-25 13:15:00,84.9,74.0,30.05,North,350,3.0,3.0,70,0.00,,,0.00,Wunderground v.1.15,2013-08-25 18:15:00,
2013-08-25 13:20:00,85.7,74.4,30.05,NE,40,3.0,3.0,69,0.00,,,0.00,Wunderground v.1.15,2013-08-25 18:20:00,
2013-08-25 13:25:00,86.7,74.9,30.05,NNE,30,2.0,4.0,68,0.00,,,0.00,Wunderground v.1.15,2013-08-25 18:25:00,
2013-08-25 13:30:00,86.2,73.0,30.05,ENE,65,3.0,3.0,65,0.00,,,0.00,Wunderground v.1.15,2013-08-25 18:30:00,
2013-08-25 13:35:00,85.7,73.5,30.05,East,96,4.0,4.0,67,0.00,,,0.00,Wunderground v.1.15,2013-08-25 18:35:00,
2013-08-25 13:40:00,85.7,73.0,30.04,North,11,3.0,3.0,66,0.00,,,0.00,Wunderground v.1.15,2013-08-25 18:40:00,
2013-08-25 13:45:00,85.9,74.1,30.04,SSE,165,3.0,3.0,68,0.00,,,0.00,Wunderground v.1.15,2013-08-25 18:45:00,
2013-08-25 13:50:00,85.8,73.6,30.04,NE,49,3.0,3.0,67,0.00,,,0.00,Wunderground v.1.15,2013-08-25 18:50:00,
2013-08-25 13:55:00,85.5,73.3,30.04,SSW,201,4.0,4.0,67,0.00,,,0.00,Wunderground v.1.15,2013-08-25 18:55:00,
2013-08-25 14:00:00,85.9,73.7,30.04,NE,48,3.0,3.0,67,0.00,,,0.00,Wunderground v.1.15,2013-08-25 19:00:00,
2013-08-25 14:05:00,86.2,74.0,30.04,NE,46,3.0,3.0,67,0.00,,,0.00,Wunderground v.1.15,2013-08-25 19:05:00,
2013-08-25 14:10:00,86.7,74.0,30.04,SSW,211,3.0,3.0,66,0.00,,,0.00,Wunderground v.1.15,2013-08-25 19:10:00,
2013-08-25 14:15:00,86.8,73.2,30.04,ESE,109,3.0,3.0,64,0.00,,,0.00,Wunderground v.1.15,2013-08-25 19:15:00,
2013-08-25 14:20:00,86.7,73.1,30.04,ENE,65,3.0,3.0,64,0.00,,,0.00,Wunderground v.1.15,2013-08-25 19:20:00,
2013-08-25 14:25:00,86.7,74.0,30.04,South,182,3.0,3.0,66,0.00,,,0.00,Wunderground v.1.15,2013-08-25 19:25:00,
2013-08-25 14:30:00,86.9,73.7,30.04,NE,40,3.0,6.0,65,0.00,,,0.00,Wunderground v.1.15,2013-08-25 19:30:00,
2013-08-25 14:35:00,86.4,73.2,30.04,SSE,160,4.0,6.0,65,0.00,,,0.00,Wunderground v.1.15,2013-08-25 19:35:00,
2013-08-25 14:40:00,86.2,73.0,30.04,ESE,108,4.0,4.0,65,0.00,,,0.00,Wunderground v.1.15,2013-08-25 19:40:00,
2013-08-25 14:45:00,86.1,73.4,30.04,North,349,4.0,4.0,66,0.00,,,0.00,Wunderground v.1.15,2013-08-25 19:45:00,
2013-08-25 14:50:00,86.3,74.0,30.04,NNW,344,3.0,3.0,67,0.00,,,0.00,Wunderground v.1.15,2013-08-25 19:50:00,
2013-08-25 14:55:00,86.5,73.3,30.03,NE,42,3.0,6.0,65,0.00,,,0.00,Wunderground v.1.15,2013-08-25 19:55:00,
2013-08-25 15:00:00,86.5,73.8,30.03,South,188,3.0,5.0,66,0.00,,,0.00,Wunderground v.1.15,2013-08-25 20:00:00,
2013-08-25 15:05:00,86.6,73.9,30.03,SSE,147,2.0,5.0,66,0.00,,,0.00,Wunderground v.1.15,2013-08-25 20:05:00,
2013-08-25 15:10:00,86.5,73.3,30.03,South,171,2.0,2.0,65,0.00,,,0.00,Wunderground v.1.15,2013-08-25 20:10:00,
2013-08-25 15:15:00,86.4,73.7,30.03,NNE,19,3.0,7.0,66,0.00,,,0.00,Wunderground v.1.15,2013-08-25 20:15:00,
2013-08-25 15:20:00,86.8,73.6,30.03,ENE,58,3.0,3.0,65,0.00,,,0.00,Wunderground v.1.15,2013-08-25 20:20:00,
2013-08-25 15:25:00,87.2,74.0,30.02,NE,45,3.0,5.0,65,0.00,,,0.00,Wunderground v.1.15,2013-08-25 20:25:00,
2013-08-25 15:35:00,86.7,73.5,30.02,NNE,22,3.0,6.0,65,0.00,,,0.00,Wunderground v.1.15,2013-08-25 20:35:00,
2013-08-25 15:40:00,86.2,73.0,30.02,ENE,57,3.0,3.0,65,0.00,,,0.00,Wunderground v.1.15,2013-08-25 20:40:00,
2013-08-25 15:45:00,86.0,73.8,30.02,NNE,29,3.0,12.0,67,0.00,,,0.00,Wunderground v.1.15,2013-08-25 20:45:00,
2013-08-25 15:50:00,86.1,73.9,30.02,NNE,29,3.0,3.0,67,0.00,,,0.00,Wunderground v.1.15,2013-08-25 20:50:00,
2013-08-25 15:55:00,86.5,73.3,30.02,South,180,3.0,5.0,65,0.00,,,0.00,Wunderground v.1.15,2013-08-25 20:55:00,
2013-08-25 16:00:00,86.7,73.5,30.02,SE,130,2.0,2.0,65,0.00,,,0.00,Wunderground v.1.15,2013-08-25 21:00:00,
2013-08-25 16:05:00,86.9,73.7,30.02,ENE,74,2.0,12.0,65,0.00,,,0.00,Wunderground v.1.15,2013-08-25 21:05:00,
2013-08-25 16:10:00,87.6,74.4,30.02,ESE,105,2.0,12.0,65,0.00,,,0.00,Wunderground v.1.15,2013-08-25 21:10:00,
2013-08-25 16:15:00,87.5,72.9,30.02,NE,53,3.0,12.0,62,0.00,,,0.00,Wunderground v.1.15,2013-08-25 21:15:00,
2013-08-25 16:20:00,86.6,73.0,30.02,ESE,102,3.0,3.0,64,0.00,,,0.00,Wunderground v.1.15,2013-08-25 21:20:00,
2013-08-25 16:25:00,85.9,72.8,30.02,East,87,3.0,12.0,65,0.00,,,0.00,Wunderground v.1.15,2013-08-25 21:25:00,
2013-08-25 16:30:00,85.6,72.9,30.01,ESE,119,2.0,2.0,66,0.00,,,0.00,Wunderground v.1.15,2013-08-25 21:30:00,
2013-08-25 16:34:00,85.3,72.6,30.01,East,88,2.0,12.0,66,0.00,,,0.00,Wunderground v.1.15,2013-08-25 21:34:00,
2013-08-25 16:40:00,85.0,72.8,30.01,NNE,33,2.0,12.0,67,0.00,,,0.00,Wunderground v.1.15,2013-08-25 21:40:00,
2013-08-25 16:44:00,84.7,72.5,30.02,South,184,2.0,12.0,67,0.00,,,0.00,Wunderground v.1.15,2013-08-25 21:44:00,
2013-08-25 16:49:00,84.4,73.1,30.02,SE,125,1.0,12.0,69,0.00,,,0.00,Wunderground v.1.15,2013-08-25 21:49:00,
2013-08-25 16:54:00,84.2,73.3,30.02,NE,51,1.0,12.0,70,0.00,,,0.00,Wunderground v.1.15,2013-08-25 21:54:00,
2013-08-25 16:59:00,84.1,72.8,30.02,SSE,163,1.0,12.0,69,0.00,,,0.00,Wunderground v.1.15,2013-08-25 21:59:00,
2013-08-25 17:04:00,84.1,73.3,30.02,ESE,103,1.0,12.0,70,0.00,,,0.00,Wunderground v.1.15,2013-08-25 22:04:00,
2013-08-25 17:09:00,83.9,73.5,30.02,SW,224,1.0,12.0,71,0.00,,,0.00,Wunderground v.1.15,2013-08-25 22:09:00,
2013-08-25 17:14:00,83.9,73.5,30.02,SSE,160,1.0,12.0,71,0.00,,,0.00,Wunderground v.1.15,2013-08-25 22:14:00,
2013-08-25 17:19:00,83.6,73.6,30.02,South,173,2.0,2.0,72,0.00,,,0.00,Wunderground v.1.15,2013-08-25 22:19:00,
2013-08-25 17:24:00,83.5,73.5,30.02,SE,138,1.0,12.0,72,0.00,,,0.00,Wunderground v.1.15,2013-08-25 22:24:00,
2013-08-25 17:29:00,83.4,73.0,30.02,South,169,1.0,12.0,71,0.00,,,0.00,Wunderground v.1.15,2013-08-25 22:29:00,
2013-08-25 17:35:00,83.3,72.9,30.02,East,80,1.0,12.0,71,0.00,,,0.00,Wunderground v.1.15,2013-08-25 22:35:00,
2013-08-25 17:40:00,83.1,73.5,30.02,SSE,161,1.0,12.0,73,0.00,,,0.00,Wunderground v.1.15,2013-08-25 22:40:00,
2013-08-25 17:44:00,83.0,73.0,30.03,ESE,113,1.0,12.0,72,0.00,,,0.00,Wunderground v.1.15,2013-08-25 22:44:00,
2013-08-25 17:49:00,82.8,73.3,30.03,SSE,161,1.0,12.0,73,0.00,,,0.00,Wunderground v.1.15,2013-08-25 22:49:00,
2013-08-25 17:55:00,82.7,73.6,30.03,North,350,1.0,12.0,74,0.00,,,0.00,Wunderground v.1.15,2013-08-25 22:55:00,
2013-08-25 17:59:00,82.7,73.6,30.03,NE,43,1.0,1.0,74,0.00,,,0.00,Wunderground v.1.15,2013-08-25 22:59:00,
2013-08-25 18:04:00,82.7,74.0,30.03,NE,42,0.0,12.0,75,0.00,,,0.00,Wunderground v.1.15,2013-08-25 23:04:00,
2013-08-25 18:09:00,82.6,73.9,30.03,SSE,155,0.0,12.0,75,0.00,,,0.00,Wunderground v.1.15,2013-08-25 23:09:00,
2013-08-25 18:14:00,82.5,73.8,30.03,SSE,149,0.0,12.0,75,0.00,,,0.00,Wunderground v.1.15,2013-08-25 23:14:00,
2013-08-25 18:24:00,82.0,74.1,30.03,SE,142,1.0,12.0,77,0.00,,,0.00,Wunderground v.1.15,2013-08-25 23:24:00,
2013-08-25 18:29:00,82.0,74.1,30.03,SE,142,0.0,12.0,77,0.00,,,0.00,Wunderground v.1.15,2013-08-25 23:29:00,
2013-08-25 18:34:00,81.9,74.4,30.03,SE,142,0.0,12.0,78,0.00,,,0.00,Wunderground v.1.15,2013-08-25 23:34:00,
2013-08-25 18:39:00,81.9,74.4,30.03,SE,142,0.0,12.0,78,0.00,,,0.00,Wunderground v.1.15,2013-08-25 23:39:00,
2013-08-25 18:44:00,81.7,74.2,30.03,SE,142,0.0,12.0,78,0.00,,,0.00,Wunderground v.1.15,2013-08-25 23:44:00,
2013-08-25 18:49:00,81.6,74.5,30.03,SE,142,0.0,12.0,79,0.00,,,0.00,Wunderground v.1.15,2013-08-25 23:49:00,
2013-08-25 18:54:00,81.4,74.6,30.03,SE,142,0.0,12.0,80,0.00,,,0.00,Wunderground v.1.15,2013-08-25 23:54:00,
2013-08-25 18:59:00,81.1,74.3,30.04,SE,130,0.0,12.0,80,0.00,,,0.00,Wunderground v.1.15,2013-08-25 23:59:00,
2013-08-25 19:04:00,80.8,74.4,30.04,SE,129,1.0,12.0,81,0.00,,,0.00,Wunderground v.1.15,2013-08-26 00:04:00,
2013-08-25 19:09:00,80.5,74.1,30.04,ENE,76,0.0,12.0,81,0.00,,,0.00,Wunderground v.1.15,2013-08-26 00:09:00,
2013-08-25 19:14:00,80.2,74.2,30.04,ENE,76,0.0,12.0,82,0.00,,,0.00,Wunderground v.1.15,2013-08-26 00:14:00,
2013-08-25 19:19:00,80.0,74.4,30.04,ENE,76,0.0,12.0,83,0.00,,,0.00,Wunderground v.1.15,2013-08-26 00:19:00,
2013-08-25 19:24:00,79.8,74.5,30.04,NE,48,1.0,12.0,84,0.00,,,0.00,Wunderground v.1.15,2013-08-26 00:24:00,
2013-08-25 19:34:00,78.9,73.7,30.04,ENE,74,2.0,12.0,84,0.00,,,0.00,Wunderground v.1.15,2013-08-26 00:34:00,
2013-08-25 19:39:00,78.5,73.6,30.04,ENE,61,2.0,2.0,85,0.00,,,0.00,Wunderground v.1.15,2013-08-26 00:39:00,
2013-08-25 19:44:00,78.2,73.3,30.04,ENE,60,1.0,12.0,85,0.00,,,0.00,Wunderground v.1.15,2013-08-26 00:44:00,
2013-08-25 19:49:00,77.8,73.3,30.04,ENE,61,1.0,12.0,86,0.00,,,0.00,Wunderground v.1.15,2013-08-26 00:49:00,
2013-08-25 19:54:00,77.5,73.3,30.04,ENE,57,1.0,12.0,87,0.00,,,0.00,Wunderground v.1.15,2013-08-26 00:54:00,
2013-08-25 19:59:00,77.2,72.7,30.04,NE,48,1.0,12.0,86,0.00,,,0.00,Wunderground v.1.15,2013-08-26 00:59:00,
2013-08-25 20:09:00,76.8,72.6,30.04,NE,43,1.0,12.0,87,0.00,,,0.00,Wunderground v.1.15,2013-08-26 01:09:00,
2013-08-25 20:14:00,76.7,72.5,30.05,NE,42,1.0,12.0,87,0.00,,,0.00,Wunderground v.1.15,2013-08-26 01:14:00,
2013-08-25 20:19:00,76.5,72.3,30.05,NE,44,1.0,12.0,87,0.00,,,0.00,Wunderground v.1.15,2013-08-26 01:19:00,
2013-08-25 20:24:00,76.4,72.2,30.05,NE,44,1.0,12.0,87,0.00,,,0.00,Wunderground v.1.15,2013-08-26 01:24:00,
2013-08-25 20:29:00,76.2,72.0,30.06,NE,44,2.0,2.0,87,0.00,,,0.00,Wunderground v.1.15,2013-08-26 01:29:00,
2013-08-25 20:34:00,76.1,72.3,30.06,NE,44,1.0,12.0,88,0.00,,,0.00,Wunderground v.1.15,2013-08-26 01:34:00,
2013-08-25 20:39:00,76.0,72.2,30.06,NE,44,1.0,12.0,88,0.00,,,0.00,Wunderground v.1.15,2013-08-26 01:39:00,
2013-08-25 20:44:00,75.8,72.0,30.06,NE,43,1.0,12.0,88,0.00,,,0.00,Wunderground v.1.15,2013-08-26 01:44:00,
2013-08-25 20:49:00,75.8,72.3,30.06,NE,43,1.0,12.0,89,0.00,,,0.00,Wunderground v.1.15,2013-08-26 01:49:00,
2013-08-25 20:54:00,75.7,72.2,30.06,NE,42,2.0,12.0,89,0.00,,,0.00,Wunderground v.1.15,2013-08-26 01:54:00,
2013-08-25 20:59:00,75.6,72.1,30.06,NE,43,1.0,12.0,89,0.00,,,0.00,Wunderground v.1.15,2013-08-26 01:59:00,
2013-08-25 21:04:00,75.5,72.0,30.06,NE,44,0.0,12.0,89,0.00,,,0.00,Wunderground v.1.15,2013-08-26 02:04:00,
2013-08-25 21:09:00,75.4,71.9,30.06,NE,44,0.0,12.0,89,0.00,,,0.00,Wunderground v.1.15,2013-08-26 02:09:00,
2013-08-25 21:14:00,75.4,72.3,30.07,NE,44,0.0,12.0,90,0.00,,,0.00,Wunderground v.1.15,2013-08-26 02:14:00,
2013-08-25 21:19:00,75.4,72.3,30.07,NE,44,0.0,12.0,90,0.00,,,0.00,Wunderground v.1.15,2013-08-26 02:19:00,
2013-08-25 21:24:00,75.3,72.2,30.07,NE,44,0.0,12.0,90,0.00,,,0.00,Wunderground v.1.15,2013-08-26 02:24:00,
2013-08-25 21:29:00,75.2,72.1,30.07,NE,44,0.0,12.0,90,0.00,,,0.00,Wunderground v.1.15,2013-08-26 02:29:00,
2013-08-25 21:34:00,75.2,72.1,30.07,NE,44,1.0,12.0,90,0.00,,,0.00,Wunderground v.1.15,2013-08-26 02:34:00,
2013-08-25 21:39:00,75.2,72.4,30.07,NE,44,1.0,12.0,91,0.00,,,0.00,Wunderground v.1.15,2013-08-26 02:39:00,
2013-08-25 21:44:00,75.1,72.3,30.08,NE,44,1.0,12.0,91,0.00,,,0.00,Wunderground v.1.15,2013-08-26 02:44:00,
2013-08-25 21:49:00,75.0,72.2,30.08,NNE,31,2.0,2.0,91,0.00,,,0.00,Wunderground v.1.15,2013-08-26 02:49:00,
2013-08-25 21:54:00,75.0,72.2,30.08,NNE,32,2.0,12.0,91,0.00,,,0.00,Wunderground v.1.15,2013-08-26 02:54:00,
2013-08-25 21:59:00,74.9,72.4,30.08,NE,44,1.0,12.0,92,0.00,,,0.00,Wunderground v.1.15,2013-08-26 02:59:00,
2013-08-25 22:04:00,74.8,72.3,30.08,NE,38,1.0,12.0,92,0.00,,,0.00,Wunderground v.1.15,2013-08-26 03:04:00,
2013-08-25 22:09:00,74.8,72.3,30.08,NE,43,1.0,1.0,92,0.00,,,0.00,Wunderground v.1.15,2013-08-26 03:09:00,
2013-08-25 22:14:00,74.8,72.3,30.07,NE,43,1.0,12.0,92,0.00,,,0.00,Wunderground v.1.15,2013-08-26 03:14:00,
2013-08-25 22:19:00,74.8,72.3,30.07,NE,43,0.0,12.0,92,0.00,,,0.00,Wunderground v.1.15,2013-08-26 03:19:00,
2013-08-25 22:24:00,74.7,72.2,30.07,NE,43,0.0,12.0,92,0.00,,,0.00,Wunderground v.1.15,2013-08-26 03:24:00,
2013-08-25 22:29:00,74.7,72.2,30.08,NE,42,0.0,12.0,92,0.00,,,0.00,Wunderground v.1.15,2013-08-26 03:29:00,
2013-08-25 22:34:00,74.7,72.2,30.08,NE,42,1.0,12.0,92,0.00,,,0.00,Wunderground v.1.15,2013-08-26 03:34:00,
2013-08-25 22:39:00,74.7,72.2,30.08,NE,42,1.0,12.0,92,0.00,,,0.00,Wunderground v.1.15,2013-08-26 03:39:00,
2013-08-25 22:44:00,74.7,72.2,30.08,NE,51,1.0,12.0,92,0.00,,,0.00,Wunderground v.1.15,2013-08-26 03:44:00,
2013-08-25 22:49:00,74.6,72.1,30.08,NE,51,1.0,12.0,92,0.00,,,0.00,Wunderground v.1.15,2013-08-26 03:49:00,
2013-08-25 22:54:00,74.6,72.1,30.08,NE,50,1.0,12.0,92,0.00,,,0.00,Wunderground v.1.15,2013-08-26 03:54:00,
2013-08-25 22:59:00,74.6,72.1,30.08,NE,49,1.0,12.0,92,0.00,,,0.00,Wunderground v.1.15,2013-08-26 03:59:00,
2013-08-25 23:03:00,74.5,72.0,30.08,NE,50,1.0,12.0,92,0.00,,,0.00,Wunderground v.1.15,2013-08-26 04:03:00,
2013-08-25 23:08:00,74.5,72.0,30.08,NE,49,1.0,12.0,92,0.00,,,0.00,Wunderground v.1.15,2013-08-26 04:08:00,
2013-08-25 23:13:00,74.4,71.9,30.08,NE,50,1.0,12.0,92,0.00,,,0.00,Wunderground v.1.15,2013-08-26 04:13:00,
2013-08-25 23:19:00,74.3,71.8,30.08,NE,46,1.0,1.0,92,0.00,,,0.00,Wunderground v.1.15,2013-08-26 04:19:00,
2013-08-25 23:28:00,74.2,72.0,30.08,NE,45,1.0,12.0,93,0.00,,,0.00,Wunderground v.1.15,2013-08-26 04:28:00,
2013-08-25 23:34:00,74.1,71.9,30.08,NE,46,1.0,12.0,93,0.00,,,0.00,Wunderground v.1.15,2013-08-26 04:34:00,
2013-08-25 23:39:00,74.1,71.9,30.08,NE,45,1.0,12.0,93,0.00,,,0.00,Wunderground v.1.15,2013-08-26 04:39:00,
2013-08-25 23:44:00,74.0,71.8,30.08,NE,45,1.0,12.0,93,0.00,,,0.00,Wunderground v.1.15,2013-08-26 04:44:00,
2013-08-25 23:49:00,74.0,71.8,30.08,NE,44,2.0,2.0,93,0.00,,,0.00,Wunderground v.1.15,2013-08-26 04:49:00,
2013-08-25 23:54:00,73.9,71.7,30.08,NE,42,2.0,12.0,93,0.00,,,0.00,Wunderground v.1.15,2013-08-26 04:54:00,
2013-08-25 23:59:00,73.9,71.7,30.08,NE,45,2.0,12.0,93,0.00,,,0.00,Wunderground v.1.15,2013-08-26 04:59:00,